This is the latest recevied weather packets stored in our database for station/object WA7CUG. If no packets are shown the sender has not sent any weather packets the latest 10 day(s).
| Time | Temp. | Humidity | Pressure | Rain* | Wind** | Luminosity | Snow |
|---|---|---|---|---|---|---|---|
| 1777663022 | 22.22° C | 38% | 1018.1 hPa | 0 mm | - | 621 W/m² | - |
| 1777662719 | 21.67° C | 38% | 1017.9 hPa | 0 mm | - | 636 W/m² | - |
| 1777662415 | 21.11° C | 43% | 1018.3 hPa | 0 mm | - | 633 W/m² | - |
| 1777662110 | 21.11° C | 42% | 1018 hPa | 0 mm | - | 633 W/m² | - |
| 1777661807 | 21.11° C | 39% | 1018.3 hPa | 0 mm | - | 603 W/m² | - |
| 1777661502 | 21.11° C | 41% | 1018.3 hPa | 0 mm | - | 535 W/m² | - |
| 1777661199 | 21.11° C | 41% | 1018.4 hPa | 0 mm | - | 597 W/m² | - |
| 1777660894 | 20.56° C | 49% | 1018.4 hPa | 0 mm | - | 606 W/m² | - |
| 1777660591 | 20° C | 46% | 1018.6 hPa | 0 mm | - | 596 W/m² | - |
| 1777660287 | 19.44° C | 46% | 1018.5 hPa | 0 mm | - | 544 W/m² | - |
| 1777659984 | 19.44° C | 47% | 1018.9 hPa | 0 mm | - | 588 W/m² | - |
| 1777659681 | 18.89° C | 45% | 1018.8 hPa | 0 mm | - | 573 W/m² | - |
| 1777659378 | 18.89° C | 44% | 1018.9 hPa | 0 mm | - | 532 W/m² | - |
| 1777659075 | 18.89° C | 48% | 1018.9 hPa | 0 mm | - | 532 W/m² | - |
| 1777658773 | 18.33° C | 45% | 1019 hPa | 0 mm | - | 525 W/m² | - |
| 1777658469 | 18.89° C | 47% | 1019.2 hPa | 0 mm | - | 528 W/m² | - |
| 1777658166 | 17.78° C | 47% | 1019.1 hPa | 0 mm | - | 549 W/m² | - |
| 1777657862 | 18.33° C | 50% | 1019.1 hPa | 0 mm | - | 506 W/m² | - |
| 1777657559 | 17.78° C | 47% | 1019 hPa | 0 mm | - | 471 W/m² | - |
| 1777657257 | 17.78° C | 47% | 1019.3 hPa | 0 mm | - | 497 W/m² | - |
| 1777656954 | 17.22° C | 48% | 1019.4 hPa | 0 mm | - | 491 W/m² | - |
| 1777656650 | 16.67° C | 53% | 1019.2 hPa | 0 mm | - | 537 W/m² | - |
| 1777656346 | 16.67° C | 51% | 1019.4 hPa | 0 mm | - | 524 W/m² | - |
| 1777656042 | 16.67° C | 53% | 1019.3 hPa | 0 mm | - | 461 W/m² | - |
| 1777655738 | 16.67° C | 55% | 1019.4 hPa | 0 mm | - | 464 W/m² | - |
* Rain latest hour (hover to see other rain measurements)
** Current wind speed in m/s (hover to see current wind gust speed)